Location: Terra Rouge Observatory
(46.0000°N, 62.7500°W)
Time: 11:18:51
(UTC-04:00)

Amateur Radio Satellites - All Passes

Search period start: 27 February 2015 10:48
Search period end: 28 February 2015 10:48
Location: Terra Rouge Observatory, 46.0000°N, 62.7500°W

Satellite Date Start Highest point End Downlink Frequencies (MHz)
Time Altitude Azimuth
CUBEBUG 2 27 Feb 10:49:40 10:53:36 40° 289° (WNW) 10:57:28 437.445
CUTE 1.7 + AOD 2 27 Feb 10:50:10 10:51:41 11° 300° (WNW) 10:53:00 437.475
UNISAT 6 27 Feb 10:52:02 10:55:47 26° 266° (W) 10:59:25 437.425
BUGSAT 1 27 Feb 10:53:31 10:57:43 52° 260° (W) 11:01:56 437.445
POLYITAN 1 27 Feb 10:59:23 11:03:21 34° 264° (W) 11:07:18 437.675
POPSAT HIP 1 27 Feb 11:02:00 11:05:56 33° 264° (W) 11:09:50 437.405
DOVE 4 27 Feb 11:04:36 11:06:20 12° 301° (WNW) 11:07:50 437.250
Oscar 11 27 Feb 11:10:48 11:14:05 21° 295° (WNW) 11:17:14 145.826/435.025
AISAT 27 Feb 11:12:23 11:16:53 87° 290° (WNW) 11:21:20 437.250
Oscar 19 27 Feb 11:16:58 11:19:59 16° 59° (ENE) 11:23:11 437.125/150
TIGRISAT 27 Feb 11:20:37 11:23:10 14° 271° (W) 11:25:30 435.000
CUSAT 1 27 Feb 11:22:21 11:25:09 68° 78° (ENE) 11:27:43 437.405
50 SAT 27 Feb 11:22:34 11:26:29 63° 287° (WNW) 11:30:23 437.505
VELOX 1 27 Feb 11:23:52 11:28:21 69° 286° (WNW) 11:32:45 145.980
ESTCUBE 1 27 Feb 11:24:30 11:29:03 61° 101° (E) 11:33:34 437.505/2401.250
NANOSAT C BR1 27 Feb 11:27:48 11:30:57 19° 269° (W) 11:33:58 145.865
DX 1 27 Feb 11:27:49 11:31:34 28° 294° (WNW) 11:35:15 434.975-435.025
CUBEBUG 1 27 Feb 11:29:38 11:34:04 64° 101° (E) 11:38:26 437.445
ANTELSAT 27 Feb 11:33:38 11:34:45 11° 274° (W) 11:35:35 437.575/2403.000
GONETS M04 27 Feb 11:41:16 11:46:57 19° 283° (WNW) 11:52:14
DELFI C3 27 Feb 11:44:21 11:45:44 11° 299° (WNW) 11:46:57 145.870
ZACube-1 27 Feb 11:47:35 11:50:15 16° 297° (WNW) 11:52:46 437.345
FUNcube-1 27 Feb 11:47:46 11:50:27 16° 297° (WNW) 11:52:59 145.935
Gurwin Techsat 1B 27 Feb 11:57:49 11:58:53 11° 54° (NE) 12:00:13 435.225
UWE-3 27 Feb 11:59:08 12:00:26 11° 300° (WNW) 12:01:33 435.000/436.395/437.385
HO-68 27 Feb 11:59:18 12:02:15 13° 315° (NW) 12:04:53 435.675
UKube-1 27 Feb 12:03:27 12:05:53 14° 299° (WNW) 12:08:09 .
SO-50 27 Feb 12:04:52 12:09:22 35° 243° (WSW) 12:13:47 436.795
ISS 27 Feb 12:08:09 12:11:18 47° 341° (NNW) 12:14:26 145.825
O/OREOS (USA 219) 27 Feb 12:08:54 12:11:28 14° 315° (NW) 12:13:54 437.305
DANDE 27 Feb 12:13:02 12:15:34 26° 267° (W) 12:17:49 436.750
SPROUT 27 Feb 12:17:15 12:21:30 53° 99° (E) 12:25:42 437.525
HUMSAT D 27 Feb 12:21:59 12:24:02 13° 298° (WNW) 12:25:54 437.325/437.525
TISAT 1 27 Feb 12:35:03 12:39:19 75° 102° (ESE) 12:43:32 437.305
ITUPSAT 1 27 Feb 12:36:57 12:39:17 14° 87° (E) 12:41:51 437.325
ITAMSAT 1 27 Feb 12:44:00 12:48:36 33° 66° (ENE) 12:53:17 435.822/435.867
AISAT 27 Feb 12:51:17 12:52:52 11° 302° (WNW) 12:54:14 437.250
Oscar 19 27 Feb 12:53:37 12:58:46 80° 255° (WSW) 13:03:57 437.125/150
ESTCUBE 1 27 Feb 13:02:29 13:05:30 17° 298° (WNW) 13:08:23 437.505/2401.250
CUBEBUG 1 27 Feb 13:07:14 13:09:59 16° 298° (WNW) 13:12:34 437.445
Gurwin Techsat 1B 27 Feb 13:32:42 13:37:56 63° 72° (ENE) 13:43:14 435.225
SWISSCUBE 27 Feb 13:38:42 13:43:28 58° 100° (E) 13:48:13 437.505
ISS 27 Feb 13:45:19 13:48:11 28° 1° (N) 13:51:05 145.825
BEESAT 27 Feb 13:48:03 13:52:51 66° 102° (ESE) 13:57:37 436.000
AO-7 27 Feb 13:48:15 13:55:19 33° 55° (NE) 14:02:32 29.400- 29.500
SPROUT 27 Feb 13:54:21 13:57:15 17° 297° (WNW) 14:00:01 437.525
TISAT 1 27 Feb 14:12:36 14:14:37 13° 299° (WNW) 14:16:27 437.305
ITUPSAT 1 27 Feb 14:12:59 14:17:50 75° 286° (WNW) 14:22:39 437.325
ITAMSAT 1 27 Feb 14:23:14 14:28:04 37° 264° (W) 14:32:54 435.822/435.867
HORYU 2 27 Feb 14:26:29 14:30:49 56° 72° (ENE) 14:35:11 437.375
Oscar 19 27 Feb 14:37:56 14:39:06 10° 276° (W) 14:39:55 437.125/150
JAS-2 27 Feb 14:41:26 14:46:00 28° 61° (ENE) 14:51:05 435.910
YUBILEINY 27 Feb 14:46:25 14:51:02 16° 75° (ENE) 14:56:11 435.215
KKS-1 27 Feb 15:00:22 15:04:50 74° 103° (ESE) 15:09:15 437.445
Gurwin Techsat 1B 27 Feb 15:14:37 15:18:27 19° 271° (W) 15:22:07 435.225
STARS 27 Feb 15:15:25 15:19:49 70° 102° (ESE) 15:24:10 437.465
SWISSCUBE 27 Feb 15:17:28 15:20:58 20° 298° (WNW) 15:24:19 437.505
ISS 27 Feb 15:21:53 15:25:05 51° 21° (NNE) 15:28:16 145.825
BEESAT 27 Feb 15:27:02 15:30:15 18° 299° (WNW) 15:33:19 436.000
AO-7 27 Feb 15:39:19 15:47:39 69° 255° (WSW) 15:55:59 29.400- 29.500
Cubesat XI-IV 27 Feb 15:45:15 15:47:11 12° 55° (NE) 15:49:22 437.490
MOZHAYETS 4 27 Feb 15:46:35 15:48:40 13° 87° (E) 15:50:58
ITUPSAT 1 27 Feb 15:53:25 15:54:59 11° 303° (WNW) 15:56:19 437.325
CUTE-I 27 Feb 15:54:28 15:57:09 14° 56° (ENE) 16:00:03 437.470
HORYU 2 27 Feb 16:05:04 16:07:54 16° 270° (W) 16:10:35 437.375
JAS-2 27 Feb 16:25:37 16:30:50 49° 263° (W) 16:36:39 435.910
YUBILEINY 27 Feb 16:37:49 16:46:30 77° 95° (E) 16:55:19 435.215
KKS-1 27 Feb 16:38:33 16:40:58 14° 300° (WNW) 16:43:13 437.445
M-CUBED/EXP-1 PRIME 27 Feb 16:50:32 16:54:36 73° 108° (ESE) 16:59:01 437.505
STARS 27 Feb 16:53:19 16:55:48 15° 299° (WNW) 16:58:07 437.465
AUBIESAT-1 27 Feb 16:55:38 16:59:44 75° 108° (ESE) 17:04:09 437.475
ISS 27 Feb 16:58:29 17:01:25 30° 218° (SW) 17:04:19 145.825
Cubesat XI-IV 27 Feb 17:21:05 17:26:25 70° 73° (ENE) 17:31:49 437.490
MOZHAYETS 4 27 Feb 17:21:53 17:26:31 74° 286° (WNW) 17:31:08
CUTE-I 27 Feb 17:31:08 17:36:30 83° 75° (ENE) 17:41:56 437.470
CUBESAT XI-V 27 Feb 17:34:58 17:37:25 14° 87° (E) 17:40:03 437.345
AO-7 27 Feb 17:37:58 17:42:15 14° 277° (W) 17:45:57 29.400- 29.500
BEESAT 3 27 Feb 17:40:06 17:43:23 24° 115° (ESE) 17:46:48 437.485
AIST 1 27 Feb 17:44:30 17:47:59 23° 69° (ENE) 17:51:31
STRAND 1 27 Feb 17:51:43 17:54:06 14° 86° (E) 17:56:45 437.568
BEESAT 2 27 Feb 18:01:04 18:04:47 33° 118° (ESE) 18:08:35 435.950
PRISM 27 Feb 18:13:06 18:16:53 31° 96° (E) 18:20:42 437.425
M-CUBED/EXP-1 PRIME 27 Feb 18:26:59 18:29:12 14° 302° (WNW) 18:31:20 437.505
AUBIESAT-1 27 Feb 18:32:03 18:34:15 14° 302° (WNW) 18:36:22 437.475
YUBILEINY 27 Feb 18:37:09 18:44:25 27° 299° (WNW) 18:51:31 435.215
HO-68 27 Feb 18:52:58 18:59:14 36° 60° (ENE) 19:05:37 435.675
O/OREOS (USA 219) 27 Feb 18:55:18 18:59:28 33° 56° (NE) 19:03:37 437.305
DOVE 4 27 Feb 18:56:45 18:59:49 17° 62° (ENE) 19:03:00 437.250
MOZHAYETS 4 27 Feb 19:02:21 19:03:01 10° 302° (WNW) 19:03:26
Cubesat XI-IV 27 Feb 19:03:32 19:07:09 17° 272° (W) 19:10:35 437.490
CUBESAT XI-V 27 Feb 19:10:43 19:15:27 70° 286° (WNW) 19:20:08 437.345
CUTE-I 27 Feb 19:14:24 19:17:23 14° 274° (W) 19:20:07 437.470
AIST 2 27 Feb 19:16:12 19:20:27 75° 125° (SE) 19:24:47 435.215
BEESAT 3 27 Feb 19:17:24 19:21:19 41° 313° (NW) 19:25:17 437.485
BRITE-PL 27 Feb 19:17:26 19:22:51 48° 71° (ENE) 19:28:07 437.365/2234.400
VERMONT LUNAR 27 Feb 19:18:13 19:20:41 18° 159° (SSE) 19:23:10 437.305
AIST 1 27 Feb 19:21:43 19:25:50 37° 268° (W) 19:29:52
STRAND 1 27 Feb 19:28:54 19:34:05 83° 288° (WNW) 19:39:14 437.568
COMPASS 1 27 Feb 19:29:26 19:32:44 24° 67° (ENE) 19:36:08 437.405
AAUSAT CUBESAT 2 27 Feb 19:29:54 19:33:00 21° 66° (ENE) 19:36:12 437.432
CINEMA 3 27 Feb 19:30:49 19:33:55 18° 64° (ENE) 19:37:05 145.822/145.860
BEESAT 2 27 Feb 19:39:15 19:43:00 32° 317° (NW) 19:46:46 435.950
GOMX 1 27 Feb 19:40:25 19:45:40 53° 72° (ENE) 19:50:44 467.674
UWE-3 27 Feb 19:46:38 19:48:05 12° 61° (ENE) 19:49:42 435.000/436.395/437.385
CANX-2 27 Feb 19:48:13 19:52:21 56° 73° (ENE) 19:56:30 2200.000
PRISM 27 Feb 19:48:44 19:52:19 26° 293° (WNW) 19:55:50 437.425
SEEDS 27 Feb 19:50:45 19:54:45 46° 72° (ENE) 19:58:48 437.485
UKube-1 27 Feb 19:51:06 19:51:54 11° 58° (ENE) 19:52:55 .
PCSat 27 Feb 20:04:56 20:06:40 12° 104° (ESE) 20:08:43 145.827
CUTE 1.7 + AOD 2 27 Feb 20:07:16 20:11:28 83° 77° (ENE) 20:15:43 437.475
CUBEBUG 2 27 Feb 20:14:15 20:17:54 25° 67° (ENE) 20:21:34 437.445
Oscar 11 27 Feb 20:31:08 20:35:14 46° 72° (ENE) 20:39:23 145.826/435.025
DOVE 4 27 Feb 20:31:54 20:37:08 77° 258° (WSW) 20:42:08 437.250
PHONESAT 2.4 27 Feb 20:34:30 20:37:32 25° 165° (SSE) 20:40:36 2401.200-2431.200
O/OREOS (USA 219) 27 Feb 20:34:47 20:38:52 31° 254° (WSW) 20:42:51 437.305
AISAT 27 Feb 20:38:33 20:41:00 15° 61° (ENE) 20:43:36 437.250
50 SAT 27 Feb 20:39:41 20:40:57 11° 61° (ENE) 20:42:23 437.505
HO-68 27 Feb 20:39:48 20:46:46 53° 260° (W) 20:53:45 435.675
VELOX 1 27 Feb 20:49:11 20:52:08 18° 62° (ENE) 20:55:14 145.980
DX 1 27 Feb 20:49:22 20:53:26 39° 69° (ENE) 20:57:34 434.975-435.025
CUBESAT XI-V 27 Feb 20:51:45 20:52:07 10° 303° (WNW) 20:52:13 437.345
GONETS M04 27 Feb 20:52:33 20:58:49 24° 80° (E) 21:05:24
ESTCUBE 1 27 Feb 20:54:17 20:54:50 10° 57° (ENE) 20:55:37 437.505/2401.250
VERMONT LUNAR 27 Feb 20:54:57 20:58:06 32° 176° (S) 21:01:16 437.305
AIST 2 27 Feb 20:56:24 20:59:35 19° 324° (NW) 21:02:44 435.215
BRITE-PL 27 Feb 20:56:42 21:01:33 28° 268° (W) 21:06:13 437.365/2234.400
DELFI C3 27 Feb 20:57:15 21:01:15 69° 75° (ENE) 21:05:18 145.870
BEESAT 3 27 Feb 20:59:51 21:00:33 10° 335° (NNW) 21:01:09 437.485
COMPASS 1 27 Feb 21:04:32 21:08:20 34° 264° (W) 21:12:08 437.405
AAUSAT CUBESAT 2 27 Feb 21:04:35 21:08:28 38° 263° (W) 21:12:22 437.432
CINEMA 3 27 Feb 21:05:58 21:10:47 62° 260° (W) 21:15:24 145.822/145.860
ZACube-1 27 Feb 21:08:21 21:12:42 59° 73° (ENE) 21:16:57 437.345
FUNcube-1 27 Feb 21:08:24 21:12:44 58° 73° (ENE) 21:16:58 145.935
STRAND 1 27 Feb 21:09:59 21:12:35 14° 303° (WNW) 21:14:57 437.568
UWE-3 27 Feb 21:19:35 21:24:05 89° 256° (WSW) 21:28:28 435.000/436.395/437.385
GOMX 1 27 Feb 21:19:44 21:24:05 23° 269° (W) 21:28:11 467.674
UKube-1 27 Feb 21:23:02 21:27:23 82° 74° (ENE) 21:31:47 .
CANX-2 27 Feb 21:26:17 21:28:43 15° 271° (W) 21:31:00 2200.000
SEEDS 27 Feb 21:28:01 21:30:54 17° 270° (W) 21:33:38 437.485
HUMSAT D 27 Feb 21:38:49 21:43:00 66° 74° (ENE) 21:47:10 437.325/437.525
PCSat 27 Feb 21:43:54 21:49:18 78° 121° (ESE) 21:54:46 145.827
ANTELSAT 27 Feb 21:44:00 21:46:04 14° 88° (E) 21:48:20 437.575/2403.000
CUBEBUG 2 27 Feb 21:50:15 21:54:30 37° 263° (W) 21:58:37 437.445
QB50P1 27 Feb 22:06:53 22:08:50 13° 88° (E) 22:10:58 145.935-145.965
Oscar 11 27 Feb 22:08:40 22:11:43 18° 270° (W) 22:14:40 145.826/435.025
QB50P2 27 Feb 22:09:15 22:11:29 14° 88° (E) 22:13:53 145.880/145.840
50 SAT 27 Feb 22:11:28 22:15:28 76° 256° (WSW) 22:19:28 437.505
PHONESAT 2.4 27 Feb 22:12:14 22:15:34 34° 182° (S) 22:18:53 2401.200-2431.200
AISAT 27 Feb 22:12:37 22:17:07 72° 259° (WSW) 22:21:38 437.250
DOVE 4 27 Feb 22:15:19 22:15:44 10° 276° (W) 22:15:50 437.250
VELOX 1 27 Feb 22:23:56 22:28:21 57° 259° (W) 22:32:48 145.980
RS-15 27 Feb 22:24:59 22:32:45 25° 103° (ESE) 22:41:04 29.354- 29.394
DX 1 27 Feb 22:26:21 22:29:52 23° 267° (W) 22:33:19 434.975-435.025
ESTCUBE 1 27 Feb 22:26:29 22:31:00 76° 74° (ENE) 22:35:34 437.505/2401.250
DUCHIFAT 1 27 Feb 22:26:42 22:29:53 21° 92° (E) 22:33:08 145.980
CUBEBUG 1 27 Feb 22:28:02 22:32:27 72° 74° (ENE) 22:36:55 437.445
VERMONT LUNAR 27 Feb 22:32:37 22:35:36 26° 193° (SSW) 22:38:34 437.305
BUGSAT 1 27 Feb 22:34:23 22:37:22 19° 91° (E) 22:40:24 437.445
DELFI C3 27 Feb 22:35:47 22:37:02 11° 273° (W) 22:38:05 145.870
UNISAT 6 27 Feb 22:40:38 22:44:50 52° 100° (E) 22:49:03 437.425
POLYITAN 1 27 Feb 22:42:29 22:46:16 31° 95° (E) 22:50:02 437.675
POPSAT HIP 1 27 Feb 22:44:45 22:48:34 32° 96° (E) 22:52:22 437.405
GONETS M04 27 Feb 22:46:04 22:54:47 80° 281° (W) 23:03:32
FUNcube-1 27 Feb 22:46:51 22:49:30 15° 271° (W) 22:51:57 145.935
ZACube-1 27 Feb 22:46:52 22:49:30 15° 271° (W) 22:51:55 437.345
CUSAT 1 27 Feb 22:52:53 22:55:05 12° 90° (E) 22:57:26 437.405
UKube-1 27 Feb 23:03:09 23:04:14 11° 274° (W) 23:05:03 .
TIGRISAT 27 Feb 23:07:23 23:11:40 84° 287° (WNW) 23:15:58 435.000
NANOSAT C BR1 27 Feb 23:09:02 23:13:14 59° 101° (E) 23:17:24 145.865
SWISSCUBE 27 Feb 23:13:19 23:15:16 13° 58° (ENE) 23:17:27 437.505
SPROUT 27 Feb 23:13:42 23:17:57 57° 73° (ENE) 23:22:13 437.525
HUMSAT D 27 Feb 23:17:24 23:19:18 12° 272° (W) 23:21:01 437.325/437.525
ANTELSAT 27 Feb 23:19:08 23:23:22 62° 287° (WNW) 23:27:37 437.575/2403.000
BEESAT 27 Feb 23:22:06 23:24:29 14° 59° (ENE) 23:27:04 436.000
PCSat 27 Feb 23:29:03 23:33:23 23° 322° (NW) 23:37:39 145.827
TISAT 1 27 Feb 23:29:35 23:33:51 77° 75° (ENE) 23:38:10 437.305
QB50P1 27 Feb 23:41:01 23:45:14 63° 287° (WNW) 23:49:24 145.935-145.965
DANDE 27 Feb 23:42:33 23:48:28 30° 94° (E) 23:53:20 436.750
QB50P2 27 Feb 23:43:40 23:47:52 58° 287° (WNW) 23:52:00 145.880/145.840
ITUPSAT 1 27 Feb 23:45:52 23:49:29 22° 63° (ENE) 23:53:14 437.325
PHONESAT 2.4 27 Feb 23:50:43 23:53:33 21° 199° (SSW) 23:56:21 2401.200-2431.200
DUCHIFAT 1 28 Feb 00:01:57 00:05:55 39° 290° (WNW) 00:09:49 145.980
ESTCUBE 1 28 Feb 00:06:32 00:08:32 12° 274° (W) 00:10:18 437.505/2401.250
CUBEBUG 1 28 Feb 00:07:21 00:09:26 13° 273° (W) 00:11:18 437.445
BUGSAT 1 28 Feb 00:09:07 00:13:06 42° 290° (WNW) 00:17:00 437.445
VERMONT LUNAR 28 Feb 00:12:06 00:12:52 11° 208° (SSW) 00:13:34 437.305
UNISAT 6 28 Feb 00:18:25 00:21:19 18° 296° (WNW) 00:24:06 437.425
POLYITAN 1 28 Feb 00:18:32 00:22:09 27° 293° (WNW) 00:25:39 437.675
POPSAT HIP 1 28 Feb 00:20:49 00:24:23 26° 293° (WNW) 00:27:50 437.405
KKS-1 28 Feb 00:27:40 00:29:16 12° 59° (ENE) 00:31:03 437.445
CUSAT 1 28 Feb 00:31:08 00:37:48 83° 100° (E) 00:42:47 437.405
RS-15 28 Feb 00:32:48 00:43:44 88° 123° (ESE) 00:54:54 29.354- 29.394
BEESAT 2 28 Feb 00:41:40 00:43:01 11° 27° (NNE) 00:44:29 435.950
STARS 28 Feb 00:42:12 00:43:16 11° 58° (ENE) 00:44:34 437.465
NANOSAT C BR1 28 Feb 00:46:06 00:48:42 16° 298° (WNW) 00:51:09 145.865
TIGRISAT 28 Feb 00:47:16 00:47:49 10° 301° (WNW) 00:48:09 435.000
GONETS M04 28 Feb 00:47:18 00:53:23 19° 305° (NW) 00:59:06
SWISSCUBE 28 Feb 00:47:41 00:52:29 87° 71° (ENE) 00:57:18 437.505
SPROUT 28 Feb 00:51:47 00:54:29 15° 271° (W) 00:57:00 437.525
BEESAT 28 Feb 00:56:58 01:01:45 84° 256° (WSW) 01:06:35 436.000
Oscar 19 28 Feb 01:03:01 01:07:28 30° 94° (E) 01:11:58 437.125/150
TISAT 1 28 Feb 01:08:58 01:10:19 11° 274° (W) 01:11:25 437.305
ITUPSAT 1 28 Feb 01:22:28 01:27:07 49° 261° (W) 01:31:47 437.325
DANDE 28 Feb 01:25:02 01:31:48 47° 285° (WNW) 01:36:57 436.750
Gurwin Techsat 1B 28 Feb 01:47:11 01:51:03 21° 90° (E) 01:55:03 435.225
BEESAT 3 28 Feb 01:56:22 02:00:14 36° 45° (NE) 02:04:04 437.485
AIST 2 28 Feb 01:58:04 02:01:08 19° 35° (NE) 02:04:14 435.215
KKS-1 28 Feb 02:00:48 02:05:18 90° 77° (ENE) 02:09:49 437.445
M-CUBED/EXP-1 PRIME 28 Feb 02:10:06 02:11:36 13° 57° (ENE) 02:13:15 437.505
STARS 28 Feb 02:14:39 02:19:06 83° 75° (ENE) 02:23:33 437.465
AUBIESAT-1 28 Feb 02:14:48 02:16:19 13° 57° (ENE) 02:18:00 437.475
CUSAT 1 28 Feb 02:17:24 02:20:59 15° 294° (WNW) 02:23:52 437.405
BEESAT 2 28 Feb 02:18:11 02:22:15 48° 48° (NE) 02:26:16 435.950
SO-50 28 Feb 02:21:17 02:25:38 44° 119° (ESE) 02:30:12 436.795
SWISSCUBE 28 Feb 02:29:21 02:31:07 12° 274° (W) 02:32:37 437.505
ITAMSAT 1 28 Feb 02:32:59 02:38:13 66° 102° (ESE) 02:43:24 435.822/435.867
Oscar 19 28 Feb 02:42:11 02:46:57 39° 292° (WNW) 02:51:39 437.125/150
YUBILEINY 28 Feb 02:45:00 02:53:19 44° 70° (ENE) 03:01:41 435.215
RS-15 28 Feb 02:47:32 02:57:37 39° 333° (NNW) 03:07:54 29.354- 29.394
MOZHAYETS 4 28 Feb 02:50:58 02:53:55 18° 63° (ENE) 02:57:01
Gurwin Techsat 1B 28 Feb 03:26:15 03:31:29 58° 289° (WNW) 03:36:42 435.225
JAS-2 28 Feb 03:30:44 03:36:31 26° 89° (E) 03:42:49 435.910
BEESAT 3 28 Feb 03:34:39 03:38:15 28° 244° (WSW) 03:41:45 437.485
AIST 2 28 Feb 03:35:59 03:40:17 78° 236° (SW) 03:44:30 435.215
AO-7 28 Feb 03:38:19 03:45:45 36° 95° (E) 03:53:16 29.400- 29.500
M-CUBED/EXP-1 PRIME 28 Feb 03:43:02 03:46:14 47° 254° (WSW) 03:49:32 437.505
AUBIESAT-1 28 Feb 03:47:42 03:50:53 47° 255° (WSW) 03:54:12 437.475
HORYU 2 28 Feb 03:51:47 03:56:16 82° 103° (ESE) 04:00:43 437.375
STARS 28 Feb 03:55:04 03:56:17 11° 274° (W) 03:57:12 437.465
BEESAT 2 28 Feb 03:57:01 04:00:09 20° 246° (WSW) 04:03:11 435.950
SO-50 28 Feb 04:02:10 04:06:22 31° 320° (NW) 04:10:40 436.795
ITAMSAT 1 28 Feb 04:13:30 04:17:16 20° 300° (WNW) 04:20:54 435.822/435.867
MOZHAYETS 4 28 Feb 04:26:16 04:30:47 59° 260° (W) 04:35:19
CUBESAT XI-V 28 Feb 04:40:44 04:44:01 20° 63° (ENE) 04:47:27 437.345
YUBILEINY 28 Feb 04:41:57 04:50:18 48° 271° (W) 04:58:33 435.215
PCSat 28 Feb 04:46:37 04:50:52 23° 38° (NE) 04:55:11 145.827
RS-15 28 Feb 05:04:35 05:13:57 30° 7° (N) 05:23:41 29.354- 29.394
PRISM 28 Feb 05:06:00 05:09:42 33° 68° (ENE) 05:13:29 437.425
STRAND 1 28 Feb 05:09:19 05:13:31 27° 64° (ENE) 05:17:49 437.568
JAS-2 28 Feb 05:14:56 05:22:09 75° 287° (WNW) 05:29:54 435.910
HORYU 2 28 Feb 05:30:17 05:32:22 13° 300° (WNW) 05:34:17 437.375
AO-7 28 Feb 05:30:52 05:38:59 58° 296° (WNW) 05:47:00 29.400- 29.500
Cubesat XI-IV 28 Feb 05:36:35 05:40:45 23° 91° (E) 05:45:01 437.490
CUTE-I 28 Feb 05:46:17 05:50:47 27° 93° (E) 05:55:21 437.470
SO-50 28 Feb 05:47:11 05:48:29 11° 343° (NNW) 05:49:42 436.795
CUBESAT XI-V 28 Feb 06:16:31 06:21:07 55° 261° (W) 06:25:46 437.345
AIST 1 28 Feb 06:19:07 06:20:28 11° 84° (E) 06:22:03
PCSat 28 Feb 06:29:29 06:34:57 79° 238° (WSW) 06:40:22 145.827
PRISM 28 Feb 06:41:53 06:45:17 24° 266° (W) 06:48:41 437.425
STRAND 1 28 Feb 06:47:35 06:52:31 45° 262° (W) 06:57:29 437.568
GONETS M04 28 Feb 06:58:32 07:02:31 14° 49° (NE) 07:06:59
JAS-2 28 Feb 07:01:36 07:06:19 19° 305° (NW) 07:10:59 435.910
Cubesat XI-IV 28 Feb 07:15:59 07:21:14 54° 290° (WNW) 07:26:26 437.490
RS-15 28 Feb 07:18:44 07:29:40 52° 38° (NE) 07:41:08 29.354- 29.394
BRITE-PL 28 Feb 07:23:36 07:24:08 10° 82° (E) 07:24:59 437.365/2234.400
AO-7 28 Feb 07:25:23 07:30:14 17° 318° (NW) 07:34:44 29.400- 29.500
CUTE-I 28 Feb 07:25:58 07:31:05 45° 292° (WNW) 07:36:09 437.470
GOMX 1 28 Feb 07:43:20 07:44:01 10° 83° (E) 07:44:58 467.674
CUTE 1.7 + AOD 2 28 Feb 07:52:07 07:53:42 12° 87° (E) 07:55:31 437.475
AIST 1 28 Feb 07:53:14 07:57:34 72° 280° (W) 08:01:59
HO-68 28 Feb 08:04:58 08:10:51 27° 92° (E) 08:16:52 435.675
PCSat 28 Feb 08:15:31 08:17:35 12° 256° (WSW) 08:19:20 145.827
DOVE 4 28 Feb 08:29:53 08:33:16 22° 91° (E) 08:36:37 437.250
TIGRISAT 28 Feb 08:34:25 08:36:38 14° 62° (ENE) 08:38:59 435.000
AAUSAT CUBESAT 2 28 Feb 08:45:24 08:48:58 27° 94° (E) 08:52:35 437.432
ANTELSAT 28 Feb 08:45:32 08:48:28 18° 64° (ENE) 08:51:31 437.575/2403.000
COMPASS 1 28 Feb 08:45:32 08:49:17 31° 95° (E) 08:53:03 437.405
GONETS M04 28 Feb 08:53:11 09:01:49 60° 75° (ENE) 09:10:28
BRITE-PL 28 Feb 08:58:52 09:03:39 86° 284° (WNW) 09:08:02 437.365/2234.400
CINEMA 3 28 Feb 08:59:18 09:02:42 24° 93° (E) 09:06:07 145.822/145.860
QB50P1 28 Feb 09:02:20 09:04:49 16° 62° (ENE) 09:07:26 145.935-145.965
QB50P2 28 Feb 09:04:55 09:07:35 17° 63° (ENE) 09:10:23 145.880/145.840
CANX-2 28 Feb 09:06:52 09:11:08 82° 102° (ESE) 09:15:24 2200.000
SEEDS 28 Feb 09:08:18 09:12:31 66° 101° (E) 09:16:43 437.485
UWE-3 28 Feb 09:08:39 09:10:52 14° 89° (E) 09:13:14 435.000/436.395/437.385
SO-50 28 Feb 09:10:21 09:13:51 19° 31° (NNE) 09:17:26 436.795
UKube-1 28 Feb 09:10:36 09:11:56 11° 87° (E) 09:13:30 .
O/OREOS (USA 219) 28 Feb 09:10:46 09:14:15 22° 103° (ESE) 09:17:50 437.305
GOMX 1 28 Feb 09:18:27 09:23:01 80° 285° (WNW) 09:27:17 467.674
DUCHIFAT 1 28 Feb 09:21:49 09:25:10 23° 66° (ENE) 09:28:36 145.980
CUTE 1.7 + AOD 2 28 Feb 09:25:57 09:30:12 69° 285° (WNW) 09:34:25 437.475
BUGSAT 1 28 Feb 09:27:05 09:30:13 21° 65° (ENE) 09:33:27 437.445
RS-15 28 Feb 09:31:23 09:42:33 61° 243° (WSW) 09:54:06 29.354- 29.394
POLYITAN 1 28 Feb 09:38:02 09:41:54 34° 69° (ENE) 09:45:49 437.675
CUBEBUG 2 28 Feb 09:38:54 09:42:44 35° 96° (E) 09:46:34 437.445
ISS 28 Feb 09:39:41 09:42:06 20° 138° (SE) 09:44:34 145.825
POPSAT HIP 1 28 Feb 09:40:00 09:43:54 35° 69° (ENE) 09:47:50 437.405
UNISAT 6 28 Feb 09:42:01 09:46:24 64° 74° (ENE) 09:50:43 437.425
50 SAT 28 Feb 09:49:45 09:51:02 11° 88° (E) 09:52:30 437.505
Oscar 11 28 Feb 09:51:51 09:56:11 68° 101° (E) 10:00:29 145.826/435.025
HO-68 28 Feb 09:52:02 09:59:10 65° 292° (WNW) 10:06:14 435.675
AISAT 28 Feb 10:02:08 10:05:11 18° 91° (E) 10:08:22 437.250
NANOSAT C BR1 28 Feb 10:03:56 10:08:10 61° 73° (ENE) 10:12:25 145.865
DOVE 4 28 Feb 10:07:12 10:11:15 36° 291° (WNW) 10:15:06 437.250
TIGRISAT 28 Feb 10:08:31 10:12:57 71° 258° (WSW) 10:17:18 435.000
DELFI C3 28 Feb 10:09:51 10:13:57 86° 102° (ESE) 10:18:03 145.870
DX 1 28 Feb 10:11:11 10:15:28 51° 100° (E) 10:19:44 434.975-435.025
VELOX 1 28 Feb 10:12:44 10:16:15 23° 93° (E) 10:19:49 145.980
CUBEBUG 1 28 Feb 10:17:00 10:18:18 11° 86° (E) 10:19:50 437.445
ESTCUBE 1 28 Feb 10:18:28 10:20:41 14° 87° (E) 10:23:07 437.505/2401.250
ANTELSAT 28 Feb 10:20:39 10:24:59 52° 260° (W) 10:29:15 437.575/2403.000
AAUSAT CUBESAT 2 28 Feb 10:20:57 10:24:38 30° 291° (WNW) 10:28:15 437.432
COMPASS 1 28 Feb 10:21:23 10:24:55 26° 292° (WNW) 10:28:25 437.405
FUNcube-1 28 Feb 10:30:42 10:34:52 88° 103° (ESE) 10:39:01 145.935
ZACube-1 28 Feb 10:30:53 10:35:04 89° 102° (ESE) 10:39:14 437.345
QB50P1 28 Feb 10:36:02 10:40:18 61° 259° (W) 10:44:33 145.935-145.965
CINEMA 3 28 Feb 10:36:14 10:40:02 32° 291° (WNW) 10:43:44 145.822/145.860
QB50P2 28 Feb 10:38:54 10:43:08 56° 260° (W) 10:47:23 145.880/145.840
BRITE-PL 28 Feb 10:39:39 10:41:23 12° 303° (WNW) 10:42:52 437.365/2234.400
CANX-2 28 Feb 10:44:52 10:46:32 12° 299° (WNW) 10:48:00 2200.000
